This is the latest recevied weather packets stored in our database for station/object YD8XVB-13. If no packets are shown the sender has not sent any weather packets the latest 10 day(s).
| Time | Temp. | Humidity | Pressure | Rain* | Wind** | Luminosity | Snow |
|---|---|---|---|---|---|---|---|
| 1777442486 | 36.11° C | 11% | 0 hPa | - | - | 0 W/m² | - |
| 1777441883 | 35.56° C | 11% | 0 hPa | - | - | 0 W/m² | - |
| 1777441283 | 37.22° C | 11% | 0 hPa | - | - | 0 W/m² | - |
| 1777440983 | 36.11° C | 11% | 0 hPa | - | - | 0 W/m² | - |
| 1777440382 | 37.22° C | 11% | 0 hPa | - | - | 0 W/m² | - |
| 1777440081 | 36.67° C | 11% | 0 hPa | - | - | 0 W/m² | - |
| 1777439481 | 36.67° C | 52% | 0 hPa | - | - | 0 W/m² | - |
| 1777438880 | 36.67° C | 17% | 0 hPa | - | - | 0 W/m² | - |
| 1777438278 | 35.56° C | 11% | 0 hPa | - | - | 0 W/m² | - |
| 1777437677 | 37.78° C | 12% | 0 hPa | - | - | 0 W/m² | - |
| 1777437378 | 37.78° C | 42% | 0 hPa | - | - | 0 W/m² | - |
| 1777436776 | 36.67° C | 11% | 0 hPa | - | - | 0 W/m² | - |
| 1777435876 | 35.56° C | 11% | 0 hPa | - | - | 0 W/m² | - |
| 1777435275 | 36.11° C | 11% | 0 hPa | - | - | 0 W/m² | - |
| 1777434975 | 36.11° C | 23% | 0 hPa | - | - | 0 W/m² | - |
| 1777434373 | 36.67° C | 11% | 0 hPa | - | - | 0 W/m² | - |
| 1777434073 | 36.67° C | 11% | 0 hPa | - | - | 0 W/m² | - |
| 1777433472 | 35° C | 93% | 0 hPa | - | - | 0 W/m² | - |
| 1777433171 | 35° C | 95% | 0 hPa | - | - | 0 W/m² | - |
| 1777432571 | 36.11° C | 95% | 0 hPa | - | - | 0 W/m² | - |
| 1777431971 | 36.67° C | 11% | 0 hPa | - | - | 0 W/m² | - |
| 1777431369 | 36.67° C | 11% | 0 hPa | - | - | 0 W/m² | - |
| 1777431069 | 35.56° C | 95% | 0 hPa | - | - | 0 W/m² | - |
| 1777430469 | 35° C | 95% | 0 hPa | - | - | 0 W/m² | - |
| 1777429868 | 35.56° C | 95% | 0 hPa | - | - | 0 W/m² | - |
* Rain since midnight (hover to see other rain measurements)
** Current wind speed in m/s (hover to see current wind gust speed)